SCP
0 0 0 0 0 0 0 0 0 0 0 0 0 0 0 0 0 0 0 0 0 0 0 0 0 0 0 0 0 0 0 0 0 0 0 0 0 0 0 0 0 0 0
0 0 0 0 0 0 0 0 0 0 0 0 0 0 0 0 0 0 0 0 0 0 0 0 0 0 0 0 0 0 0 0 0 0 0 0 0 0 0 0 0 0 0
0 0 0 0 0 0 0 0 0 0 0 0 0 0 -0 -0 0 0 0 0 0 0 0 0 0 0 0 0 0 0 0 0 0 0 0 0 0 0 0 0 0 0 0
0 0 0 0 0 0 0 0 0 0 0 0 0 0 0 0 0 0 0 0 0 0 0 0 0 0 0 0 0 0 0 0 0 0 0 0 0 0 0 0 0 0 0
0 0 0 0 0 0 0 0 0 0 0 0 0 0 0 0 0 0 0 0 0 0 0 0 0 0 0 0 0 0 0 0 0 0 0 0 0 0 0 0 0 0 0
0 0 0 0 0 0 0 0 0 0 0 0 0 0 0 0 0 0 0 0 0 0 0 0 0 0 0 0 0 0 0 0 0 0 0 0 0 0 0 0 0 0 0
0 0 0 0 0 0 0 0 0 0 0 0 0 0 0 0 0 0 0 0 0 0 0 0 0 0 0 0 0 0 0 0 0 0 0 0 0 0 0 0 0 0 0
0 0 0 0 0 0 0 0 0 0 0 0 0 0 0 0 0 0 0 0 0 0 0 0 0 0 0 0 0 0 0 0 0 0 0 0 0 0 0 0 0 0 0
0 0 0 0 0 0 0 0 0 0 0 0 0 0 0 0 0 0 0 0 0 0 0 0 0 0 0 0 0 0 0 0 0 0 0 0 0 0 0 0 0 0 0
0 0 0 0 0 0 0 0 0 0 0 0 0 0 0 0 0 0 0 0 0 0 0 0 0 0 0 0 0 0 0 0 0 0 0 0 0 0 0 0 0 0 0
0 0 0 0 0 0 0 0 0 0 0 0 0 0 0 0 0 0 0 0 0 0 0 0 0 0 0 0 0 0 0 0 0 0 0 0 0 0 0 0 0 0 0
0 0 0 0 0 0 0 0 0 0 0 0 0 0 0 0 0 0 0 0 0 0 0 0 0 0 0 0 0 0 0 0 0 0 0 0 0 0 0 0 0 0 0
0 0 0 0 0 0 0 0 0 0 0 0 0 0 0 0 0 0 0 0 0 0 0 0 0 0 0 0 0 0 0 0 0 0 0 0 0 0 0 0 0 0 0
0 0 0 0 0 0 0 0 0 0 0 0 0 0 0 0 0 0 0 0 0 0 0 0 0 0 0 0 0 0 0 0 0 0 0 0 0 0 0 0 0 0 0
0 0 0 0 0 0 0 0 0 0 0 0 0 0 0 0 0 0 0 0 0 0 0 0 0 0 0 0 0 0 0 0 0 0 0 0 0 0 0 0 0 0 0
0 0 0 0 0 0 0 0 0 0 0 0 0 0 0 0 0 0 0 0 0 0 0 0 0 0 0 0 0 0 0 0 0 0 0 0 0 0 -0 0 -0 0 0
0 0 0 0 0 0 0 0 0 0 0 0 0 0 0 0 0 0 0 0 0 0 0 0 0 0 0 0 0 0 0 0 0 0 0 0 0 0 0 -0 -0 -0 -0
0 0 0 0 0 0 0 0 0 0 0 0 0 0 0 0 0 0 0 0 0 0 0 0 0 0 0 0 0 0 0 0 0 0 0 0 0 0 -0 0 0 -0 -0
0 0 0 0 0 0 0 0 0 0 0 0 0 0 0 0 0 0 0 0 0 0 0 0 0 0 0 0 0 0 0 0 0 0 0 0 0 -0 0 0 0 -0 -0
0 0 0 0 0 0 0 0 0 0 0 0 0 0 0 0 0 0 0 0 0 0 0 0 0 0 0 0 0 0 0 0 0 0 0 0 0 0 0 0 0 -0 0
0 0 0 0 0 0 0 0 0 0 0 0 0 0 0 0 0 0 0 0 0 0 0 0 0 0 0 0 0 0 0 0 0 0 0 0 0 0 0 0 0 -0 0
0 0 0 0 0 0 0 0 0 0 0 0 0 0 0 0 0 0 0 0 0 0 0 0 0 0 0 0 0 0 0 0 0 0 0 0 0 0 0 0 -0 0 0
0 0 0 0 0 0 0 0 0 0 0 0 0 0 0 0 0 0 0 0 0 0 0 0 0 0 0 0 0 0 0 0 0 0 0 0 0 0 0 0 0 0 0
0 0 0 0 0 0 0 0 0 0 0 0 0 0 0 0 0 0 0 0 0 0 0 0 0 0 0 0 0 0 0 0 0 0 0 0 0 0 0 0 0 0 0
0 0 0 0 0 0 0 0 0 0 0 0 0 0 0 0 0 0 0 0 0 0 0 0 0 0 0 0 0 0 0 0 0 0 0 0 0 0 0 0 0 0 0
0 0 0 0 0 0 0 0 0 0 0 0 0 0 0 0 0 0 0 0 0 0 0 0 0 0 0 0 0 0 0 0 0 0 0 0 0 0 0 0 0 0 0
Wind_Speed_500mb
24 27 28 27 25 22 19 16 16 14 13 8 2 14 15 12 14 15 20 18 21 26 26 25 26 27 27 29 32 33 35 36 37 44 44 43 29 21 20 18 30 26 28
27 28 27 25 21 20 17 16 16 13 9 4 13 16 12 13 12 16 21 23 25 25 24 24 25 27 28 29 32 32 37 34 36 40 42 36 32 4 25 28 24 23 27
26 26 25 23 20 18 17 15 14 9 7 21 25 18 22 18 14 19 21 23 26 24 25 25 26 26 28 30 33 33 35 41 35 31 31 22 19 52 6 25 16 25 27
24 24 25 22 20 19 18 18 14 12 19 19 20 16 15 16 18 20 22 23 25 26 25 26 26 27 30 31 32 33 36 36 36 32 25 25 31 32 38 31 33 30 32
22 24 24 21 20 16 18 18 14 17 18 22 18 12 16 15 17 21 25 24 25 26 26 29 29 29 31 33 34 36 36 37 35 32 31 30 27 30 37 48 43 41 35
22 25 23 23 20 18 16 16 15 19 23 22 21 19 19 19 20 24 24 26 26 26 26 32 30 31 33 35 36 38 37 34 37 35 32 31 32 35 36 41 47 48 41
23 22 22 21 17 14 14 14 16 23 22 23 18 19 21 22 22 25 26 29 29 29 30 33 34 33 35 37 38 39 37 39 39 37 35 35 36 37 41 43 48 49 42
19 21 20 17 15 13 13 13 19 23 21 17 18 20 22 20 21 25 27 26 29 31 35 36 36 36 37 39 39 40 35 46 36 36 38 40 43 39 39 45 46 52 50
20 21 19 15 12 11 12 13 23 19 15 18 19 21 22 24 25 26 28 28 31 34 36 37 37 38 38 39 41 41 43 42 40 41 40 39 40 41 39 40 42 47 51
20 19 16 13 12 11 8 23 18 13 16 18 20 21 23 25 26 27 30 31 33 35 36 37 38 38 38 39 41 39 41 40 44 45 45 45 46 42 43 45 44 39 44
19 18 14 13 11 9 16 18 11 13 16 18 19 22 24 26 28 28 30 32 34 35 36 37 38 39 40 43 42 42 42 42 47 44 46 45 43 46 42 42 41 40 40
18 16 15 12 10 6 15 9 11 13 17 19 22 23 25 26 27 29 30 33 34 35 37 38 38 39 41 43 41 49 45 48 50 47 44 46 40 42 39 39 38 43 43
16 15 14 10 7 3 6 8 10 14 17 19 21 23 25 26 28 29 31 33 35 36 37 38 39 41 41 41 41 52 53 52 48 44 44 43 40 40 39 39 43 42 41
14 13 12 7 6 1 5 8 11 14 17 19 20 23 25 26 28 30 32 34 36 37 39 40 40 41 41 37 63 56 57 53 44 43 41 41 38 39 43 39 40 41 43
11 10 9 7 13 10 7 6 11 14 17 19 21 23 24 26 28 31 33 35 36 38 39 41 42 42 41 46 80 61 58 46 45 41 40 37 40 42 36 43 41 45 45
7 7 8 15 14 4 7 9 10 14 16 18 21 22 25 27 30 33 35 36 37 39 40 41 43 44 42 55 80 65 53 46 43 45 42 38 38 38 40 42 46 42 43
7 9 11 11 9 4 4 9 10 14 15 18 20 24 26 29 32 34 36 38 39 40 41 43 45 46 46 68 82 73 50 46 45 44 42 40 38 42 44 49 40 34 34
12 13 7 6 4 10 5 7 10 14 15 17 21 24 27 29 32 35 38 39 40 41 43 44 45 47 48 69 83 74 53 46 48 39 39 42 45 44 51 48 40 33 32
13 5 1 5 12 4 4 7 12 13 15 19 22 25 28 31 34 37 39 40 41 41 43 44 45 48 49 67 80 73 61 54 50 43 42 45 46 52 46 45 40 35 28
12 5 9 14 6 4 6 9 10 12 15 19 22 25 28 31 34 37 39 39 40 39 42 44 44 48 51 61 77 68 63 59 54 48 46 47 49 44 41 42 36 35 25
12 14 16 9 6 6 8 10 10 12 15 19 22 26 28 31 34 35 37 38 41 39 41 43 43 47 52 60 74 67 65 60 53 50 53 53 46 42 39 34 28 26 22
19 14 10 9 8 8 10 9 10 12 16 20 23 25 29 30 32 34 36 37 41 40 42 46 45 47 51 64 74 70 65 57 51 51 54 53 50 45 42 35 34 30 25
15 12 10 10 9 9 10 6 10 12 16 26 33 27 27 28 31 32 37 36 40 41 43 46 48 51 56 72 73 74 71 60 52 51 54 54 55 52 49 48 46 47 33
15 12 11 9 9 10 11 9 10 16 27 30 24 24 26 30 30 28 33 36 45 51 48 52 51 57 63 74 73 73 73 66 58 58 61 60 62 61 60 61 55 56 43
14 12 10 8 7 7 8 10 14 17 18 20 21 25 25 28 29 30 38 41 46 49 55 59 59 64 68 70 65 65 72 67 62 62 62 68 70 71 71 68 61 61 53
14 12 8 4 6 8 10 12 13 15 17 18 20 26 24 27 28 29 30 40 47 51 55 59 58 54 54 61 62 61 67 70 66 65 66 67 69 70 68 70 62 63 59
Wind_Direction_500mb
134 141 144 144 144 140 135 121 111 86 58 30 332 332 18 335 318 326 336 348 338 339 346 338 331 335 338 335 336 336 332 334 329 330 324 321 299 279 293 280 301 291 292
129 136 138 141 138 132 122 102 90 87 107 319 328 10 301 310 333 340 337 335 341 336 342 335 338 336 338 336 335 335 334 331 331 330 326 328 318 355 305 297 293 293 297
130 136 138 136 134 122 115 109 100 67 24 352 3 4 346 339 325 323 324 325 326 334 335 338 336 339 338 333 333 331 333 327 328 329 328 323 324 325 317 315 296 305 297
126 135 137 134 131 125 114 100 85 44 14 15 29 10 359 345 335 337 321 332 325 330 332 338 336 336 334 329 329 327 326 322 318 313 312 298 294 291 303 307 308 304 304
127 134 136 135 130 121 106 91 62 25 27 26 15 20 2 350 336 330 335 330 329 328 331 333 335 329 329 327 325 324 322 317 314 308 304 298 294 287 286 296 301 301 297
123 129 133 133 128 118 103 80 46 32 25 14 15 15 5 357 349 343 337 331 331 330 331 329 329 327 324 324 323 321 319 315 305 295 300 294 291 291 288 287 294 298 298
129 134 137 135 127 117 91 74 38 25 16 21 16 9 3 357 351 344 338 340 333 330 325 331 327 324 322 321 319 319 315 306 301 302 303 291 285 286 285 288 289 293 296
134 139 140 138 132 113 96 62 29 12 26 12 9 6 4 354 348 342 339 338 332 330 328 327 327 323 320 318 318 316 309 307 311 310 305 298 294 284 282 281 285 291 294
137 141 141 139 129 118 90 43 11 32 16 9 8 2 357 354 348 346 342 335 333 331 325 329 325 322 320 318 318 312 307 312 315 315 311 305 296 292 284 282 282 284 290
139 142 143 137 137 123 68 12 42 20 9 10 3 356 355 352 349 347 342 338 335 334 333 329 326 324 321 321 318 314 312 313 317 308 308 303 302 295 289 283 284 280 281
147 150 150 149 147 125 20 43 24 10 5 6 0 358 354 354 350 347 343 340 340 337 335 332 330 329 329 323 322 317 318 316 317 308 306 303 300 298 294 289 285 282 276
153 157 158 161 164 92 28 22 13 7 2 0 359 356 355 352 350 347 345 343 342 341 338 336 336 335 332 330 326 319 323 320 316 311 309 307 303 300 296 292 287 287 284
155 160 164 172 171 55 46 29 6 2 0 358 358 353 354 352 351 349 347 346 346 345 343 342 341 338 336 334 324 328 326 322 315 311 309 311 306 302 301 296 293 295 290
167 172 175 183 153 312 28 17 356 0 359 357 358 353 355 354 351 350 349 348 347 345 346 345 342 341 340 329 332 329 329 324 320 316 310 311 306 304 305 299 299 299 296
176 182 185 173 204 313 43 5 354 358 358 358 356 357 357 354 353 352 351 348 347 346 345 343 344 344 345 327 336 336 332 329 325 320 316 313 307 310 304 304 301 301 296
175 177 166 200 289 351 57 351 357 358 0 358 358 359 359 356 354 352 349 348 348 347 346 346 345 346 346 332 344 342 340 334 326 322 322 319 317 312 311 307 301 295 290
153 155 184 247 327 79 23 4 355 358 3 1 2 1 359 357 354 352 351 350 350 348 348 347 346 347 344 336 346 348 349 334 331 330 327 325 323 324 315 314 313 303 295
130 169 214 304 68 76 355 13 3 1 6 6 4 1 360 356 353 352 352 351 350 349 348 347 347 347 349 337 345 351 351 341 338 337 333 329 330 327 324 323 322 316 304
135 158 150 74 83 76 24 10 7 8 4 6 2 359 356 353 352 352 351 351 350 350 348 349 348 348 352 340 348 353 354 350 346 344 341 333 332 331 332 330 327 322 317
103 95 99 88 98 66 31 13 13 11 5 5 1 357 354 352 353 352 351 351 351 350 349 350 352 351 352 345 354 357 357 351 353 350 346 344 341 342 344 339 337 332 334
98 95 96 102 99 67 33 21 24 15 7 3 358 354 354 354 353 354 353 353 353 352 353 354 355 355 355 350 0 5 2 354 354 352 354 356 359 2 0 0 0 353 351
99 108 111 103 85 50 25 29 25 16 7 359 350 359 357 357 356 358 357 357 357 358 358 357 359 358 358 355 6 9 12 6 6 4 6 7 16 17 20 25 33 35 32
112 113 114 100 71 41 38 39 37 18 4 12 19 0 355 4 359 1 4 2 3 4 1 1 0 358 357 3 8 9 17 13 15 18 17 21 27 28 32 36 41 47 48
114 115 103 89 66 49 58 43 16 14 12 7 2 359 359 7 3 359 3 6 6 10 10 6 3 3 5 6 9 11 17 15 22 24 22 25 32 36 37 36 41 46 51
112 108 106 128 94 76 63 40 28 17 4 2 3 4 4 5 4 2 355 359 5 9 12 9 8 6 8 9 10 14 18 16 23 23 23 26 29 31 34 33 34 44 49
115 112 105 80 72 72 49 38 19 14 13 5 7 358 10 7 6 4 3 352 358 9 10 9 7 10 10 13 16 23 26 26 29 27 24 21 25 27 25 27 30 37 44
Wind_Speed_850mb
24 27 28 27 25 22 19 16 16 14 13 8 2 14 15 12 14 15 20 18 21 26 26 25 26 27 27 29 32 33 35 36 37 44 44 43 29 21 20 18 30 26 28
27 28 27 25 21 20 17 16 16 13 9 4 13 16 12 13 12 16 21 23 25 25 24 24 25 27 28 29 32 32 37 34 36 40 42 36 32 4 25 28 24 23 27
26 26 25 23 20 18 17 15 14 9 7 21 25 18 22 18 14 19 21 23 26 24 25 25 26 26 28 30 33 33 35 41 35 31 31 22 19 52 6 25 16 25 27
24 24 25 22 20 19 18 18 14 12 19 19 20 16 15 16 18 20 22 23 25 26 25 26 26 27 30 31 32 33 36 36 36 32 25 25 31 32 38 31 33 30 32
22 24 24 21 20 16 18 18 14 17 18 22 18 12 16 15 17 21 25 24 25 26 26 29 29 29 31 33 34 36 36 37 35 32 31 30 27 30 37 48 43 41 35
22 25 23 23 20 18 16 16 15 19 23 22 21 19 19 19 20 24 24 26 26 26 26 32 30 31 33 35 36 38 37 34 37 35 32 31 32 35 36 41 47 48 41
23 22 22 21 17 14 14 14 16 23 22 23 18 19 21 22 22 25 26 29 29 29 30 33 34 33 35 37 38 39 37 39 39 37 35 35 36 37 41 43 48 49 42
19 21 20 17 15 13 13 13 19 23 21 17 18 20 22 20 21 25 27 26 29 31 35 36 36 36 37 39 39 40 35 46 36 36 38 40 43 39 39 45 46 52 50
20 21 19 15 12 11 12 13 23 19 15 18 19 21 22 24 25 26 28 28 31 34 36 37 37 38 38 39 41 41 43 42 40 41 40 39 40 41 39 40 42 47 51
20 19 16 13 12 11 8 23 18 13 16 18 20 21 23 25 26 27 30 31 33 35 36 37 38 38 38 39 41 39 41 40 44 45 45 45 46 42 43 45 44 39 44
19 18 14 13 11 9 16 18 11 13 16 18 19 22 24 26 28 28 30 32 34 35 36 37 38 39 40 43 42 42 42 42 47 44 46 45 43 46 42 42 41 40 40
18 16 15 12 10 6 15 9 11 13 17 19 22 23 25 26 27 29 30 33 34 35 37 38 38 39 41 43 41 49 45 48 50 47 44 46 40 42 39 39 38 43 43
16 15 14 10 7 3 6 8 10 14 17 19 21 23 25 26 28 29 31 33 35 36 37 38 39 41 41 41 41 52 53 52 48 44 44 43 40 40 39 39 43 42 41
14 13 12 7 6 1 5 8 11 14 17 19 20 23 25 26 28 30 32 34 36 37 39 40 40 41 41 37 63 56 57 53 44 43 41 41 38 39 43 39 40 41 43
11 10 9 7 13 10 7 6 11 14 17 19 21 23 24 26 28 31 33 35 36 38 39 41 42 42 41 46 80 61 58 46 45 41 40 37 40 42 36 43 41 45 45
7 7 8 15 14 4 7 9 10 14 16 18 21 22 25 27 30 33 35 36 37 39 40 41 43 44 42 55 80 65 53 46 43 45 42 38 38 38 40 42 46 42 43
7 9 11 11 9 4 4 9 10 14 15 18 20 24 26 29 32 34 36 38 39 40 41 43 45 46 46 68 82 73 50 46 45 44 42 40 38 42 44 49 40 34 34
12 13 7 6 4 10 5 7 10 14 15 17 21 24 27 29 32 35 38 39 40 41 43 44 45 47 48 69 83 74 53 46 48 39 39 42 45 44 51 48 40 33 32
13 5 1 5 12 4 4 7 12 13 15 19 22 25 28 31 34 37 39 40 41 41 43 44 45 48 49 67 80 73 61 54 50 43 42 45 46 52 46 45 40 35 28
12 5 9 14 6 4 6 9 10 12 15 19 22 25 28 31 34 37 39 39 40 39 42 44 44 48 51 61 77 68 63 59 54 48 46 47 49 44 41 42 36 35 25
12 14 16 9 6 6 8 10 10 12 15 19 22 26 28 31 34 35 37 38 41 39 41 43 43 47 52 60 74 67 65 60 53 50 53 53 46 42 39 34 28 26 22
19 14 10 9 8 8 10 9 10 12 16 20 23 25 29 30 32 34 36 37 41 40 42 46 45 47 51 64 74 70 65 57 51 51 54 53 50 45 42 35 34 30 25
15 12 10 10 9 9 10 6 10 12 16 26 33 27 27 28 31 32 37 36 40 41 43 46 48 51 56 72 73 74 71 60 52 51 54 54 55 52 49 48 46 47 33
15 12 11 9 9 10 11 9 10 16 27 30 24 24 26 30 30 28 33 36 45 51 48 52 51 57 63 74 73 73 73 66 58 58 61 60 62 61 60 61 55 56 43
14 12 10 8 7 7 8 10 14 17 18 20 21 25 25 28 29 30 38 41 46 49 55 59 59 64 68 70 65 65 72 67 62 62 62 68 70 71 71 68 61 61 53
14 12 8 4 6 8 10 12 13 15 17 18 20 26 24 27 28 29 30 40 47 51 55 59 58 54 54 61 62 61 67 70 66 65 66 67 69 70 68 70 62 63 59
Wind_Direction_850mb
134 141 144 144 144 140 135 121 111 86 58 30 332 332 18 335 318 326 336 348 338 339 346 338 331 335 338 335 336 336 332 334 329 330 324 321 299 279 293 280 301 291 292
129 136 138 141 138 132 122 102 90 87 107 319 328 10 301 310 333 340 337 335 341 336 342 335 338 336 338 336 335 335 334 331 331 330 326 328 318 355 305 297 293 293 297
130 136 138 136 134 122 115 109 100 67 24 352 3 4 346 339 325 323 324 325 326 334 335 338 336 339 338 333 333 331 333 327 328 329 328 323 324 325 317 315 296 305 297
126 135 137 134 131 125 114 100 85 44 14 15 29 10 359 345 335 337 321 332 325 330 332 338 336 336 334 329 329 327 326 322 318 313 312 298 294 291 303 307 308 304 304
127 134 136 135 130 121 106 91 62 25 27 26 15 20 2 350 336 330 335 330 329 328 331 333 335 329 329 327 325 324 322 317 314 308 304 298 294 287 286 296 301 301 297
123 129 133 133 128 118 103 80 46 32 25 14 15 15 5 357 349 343 337 331 331 330 331 329 329 327 324 324 323 321 319 315 305 295 300 294 291 291 288 287 294 298 298
129 134 137 135 127 117 91 74 38 25 16 21 16 9 3 357 351 344 338 340 333 330 325 331 327 324 322 321 319 319 315 306 301 302 303 291 285 286 285 288 289 293 296
134 139 140 138 132 113 96 62 29 12 26 12 9 6 4 354 348 342 339 338 332 330 328 327 327 323 320 318 318 316 309 307 311 310 305 298 294 284 282 281 285 291 294
137 141 141 139 129 118 90 43 11 32 16 9 8 2 357 354 348 346 342 335 333 331 325 329 325 322 320 318 318 312 307 312 315 315 311 305 296 292 284 282 282 284 290
139 142 143 137 137 123 68 12 42 20 9 10 3 356 355 352 349 347 342 338 335 334 333 329 326 324 321 321 318 314 312 313 317 308 308 303 302 295 289 283 284 280 281
147 150 150 149 147 125 20 43 24 10 5 6 0 358 354 354 350 347 343 340 340 337 335 332 330 329 329 323 322 317 318 316 317 308 306 303 300 298 294 289 285 282 276
153 157 158 161 164 92 28 22 13 7 2 0 359 356 355 352 350 347 345 343 342 341 338 336 336 335 332 330 326 319 323 320 316 311 309 307 303 300 296 292 287 287 284
155 160 164 172 171 55 46 29 6 2 0 358 358 353 354 352 351 349 347 346 346 345 343 342 341 338 336 334 324 328 326 322 315 311 309 311 306 302 301 296 293 295 290
167 172 175 183 153 312 28 17 356 0 359 357 358 353 355 354 351 350 349 348 347 345 346 345 342 341 340 329 332 329 329 324 320 316 310 311 306 304 305 299 299 299 296
176 182 185 173 204 313 43 5 354 358 358 358 356 357 357 354 353 352 351 348 347 346 345 343 344 344 345 327 336 336 332 329 325 320 316 313 307 310 304 304 301 301 296
175 177 166 200 289 351 57 351 357 358 0 358 358 359 359 356 354 352 349 348 348 347 346 346 345 346 346 332 344 342 340 334 326 322 322 319 317 312 311 307 301 295 290
153 155 184 247 327 79 23 4 355 358 3 1 2 1 359 357 354 352 351 350 350 348 348 347 346 347 344 336 346 348 349 334 331 330 327 325 323 324 315 314 313 303 295
130 169 214 304 68 76 355 13 3 1 6 6 4 1 360 356 353 352 352 351 350 349 348 347 347 347 349 337 345 351 351 341 338 337 333 329 330 327 324 323 322 316 304
135 158 150 74 83 76 24 10 7 8 4 6 2 359 356 353 352 352 351 351 350 350 348 349 348 348 352 340 348 353 354 350 346 344 341 333 332 331 332 330 327 322 317
103 95 99 88 98 66 31 13 13 11 5 5 1 357 354 352 353 352 351 351 351 350 349 350 352 351 352 345 354 357 357 351 353 350 346 344 341 342 344 339 337 332 334
98 95 96 102 99 67 33 21 24 15 7 3 358 354 354 354 353 354 353 353 353 352 353 354 355 355 355 350 0 5 2 354 354 352 354 356 359 2 0 0 0 353 351
99 108 111 103 85 50 25 29 25 16 7 359 350 359 357 357 356 358 357 357 357 358 358 357 359 358 358 355 6 9 12 6 6 4 6 7 16 17 20 25 33 35 32
112 113 114 100 71 41 38 39 37 18 4 12 19 0 355 4 359 1 4 2 3 4 1 1 0 358 357 3 8 9 17 13 15 18 17 21 27 28 32 36 41 47 48
114 115 103 89 66 49 58 43 16 14 12 7 2 359 359 7 3 359 3 6 6 10 10 6 3 3 5 6 9 11 17 15 22 24 22 25 32 36 37 36 41 46 51
112 108 106 128 94 76 63 40 28 17 4 2 3 4 4 5 4 2 355 359 5 9 12 9 8 6 8 9 10 14 18 16 23 23 23 26 29 31 34 33 34 44 49
115 112 105 80 72 72 49 38 19 14 13 5 7 358 10 7 6 4 3 352 358 9 10 9 7 10 10 13 16 23 26 26 29 27 24 21 25 27 25 27 30 37 44